Weather History for Saint Simons Island, GA

Change the Weather History Date:

Sunday, January 27, 2013

  Actual Average Record
Temperature  
Mean Temperature 59 °F 52 °F  
Max Temperature 63 °F 61 °F 78 °F (1974)
Min Temperature 54 °F 43 °F 20 °F (1986)
Degree Days  
Heating Degree Days 6 13  
Month to date heating degree days 185 372  
Since 1 July heating degree days 655 903  
Cooling Degree Days 0 0  
Month to date cooling degree days 12 0  
Year to date cooling degree days 12 0  
Growing Degree Days 8 (Base 50)    
Moisture  
Dew Point 51 °F    
Average Humidity 73    
Maximum Humidity 86    
Minimum Humidity 60    
Precipitation  
Precipitation 0.00 in 0.12 in 1.47 in (1998)
Month to date precipitation 0.21 2.76  
Year to date precipitation 0.21 2.76  
Snow  
Snow 0.00 in - 0.00 in ()
Month to date snowfall 0.0  
Since 1 July snowfall 0.0  
Snow Depth 0.00 in    
Sea Level Pressure  
Sea Level Pressure 30.36 in    
Wind  
Wind Speed 13 mph (NE)    
Max Wind Speed 23 mph    
Max Gust Speed 30 mph    
Visibility 9 miles    
Events      
T = Trace of Precipitation, MM = Missing Value Source: NWS Daily Summary

Daily Weather History Graph

Daily Weather History Graph

Search for Another Location

Airport:

Trip Planner

Search our weather history database for the weather conditions in past years. The results will help you decide how hot, cold, wet, or windy it might be!

Date:

Astronomy

Jan. 27, 2013 Rise Set
Actual Time 7:20 AM EST 5:56 PM EST
Civil Twilight 6:54 AM EST 6:22 PM EST
Nautical Twilight 6:25 AM EST 6:51 PM EST
Astronomical Twilight 5:56 AM EST 7:20 PM EST
Moon 6:42 PM EST (1/27) 7:17 AM EST (1/27)
Length of Visible Light 11h 27m
Length of Day
10h 36m
Full, 100% of the Moon is Illuminated
Jan 27
Full
Feb 3
Last Quarter
Feb 10
New
Feb 17
First Quarter
Feb 25
Full

Hourly Weather History & Observations

Time (EST) Temp. Dew Point Humidity Pressure Visibility Wind Dir Wind Speed Gust Speed Precip Events Conditions
12:53 AM 57.0 °F 52.0 °F 83% 30.27 in 10.0 mi NNE 8.1 mph - N/A   Scattered Clouds
1:27 AM 57.2 °F 51.8 °F 82% 30.27 in 10.0 mi NNE 8.1 mph - N/A   Mostly Cloudy
1:53 AM 57.0 °F 51.1 °F 81% 30.28 in 10.0 mi NNE 9.2 mph - N/A   Mostly Cloudy
2:08 AM 55.4 °F 51.8 °F 88% 30.28 in 10.0 mi NNE 9.2 mph - N/A   Scattered Clouds
2:53 AM 55.9 °F 51.1 °F 84% 30.28 in 10.0 mi NNE 9.2 mph - N/A   Clear
3:51 AM 55.4 °F 51.8 °F 88% 30.30 in 10.0 mi NNE 9.2 mph - N/A   Mostly Cloudy
3:53 AM 55.4 °F 51.8 °F 88% 30.30 in 10.0 mi NE 9.2 mph - N/A   Mostly Cloudy
4:09 AM 55.4 °F 51.8 °F 88% 30.30 in 10.0 mi NNE 8.1 mph - N/A   Scattered Clouds
4:53 AM 55.9 °F 51.1 °F 84% 30.30 in 10.0 mi NE 9.2 mph - N/A   Clear
5:53 AM 55.0 °F 51.1 °F 86% 30.30 in 10.0 mi NE 8.1 mph - N/A   Clear
6:53 AM 55.0 °F 50.0 °F 83% 30.32 in 10.0 mi NNE 6.9 mph - N/A   Clear
7:53 AM 55.9 °F 51.1 °F 84% 30.34 in 10.0 mi NE 10.4 mph - N/A   Clear
8:53 AM 59.0 °F 51.1 °F 75% 30.37 in 10.0 mi NE 12.7 mph - N/A   Clear
9:53 AM 61.0 °F 51.1 °F 70% 30.38 in 10.0 mi NE 13.8 mph 20.7 mph N/A   Clear
10:53 AM 62.1 °F 50.0 °F 65% 30.40 in 10.0 mi NE 18.4 mph 24.2 mph N/A   Clear
11:53 AM 62.1 °F 48.9 °F 62% 30.41 in 10.0 mi NE 17.3 mph 26.5 mph N/A   Clear
12:53 PM 61.0 °F 50.0 °F 67% 30.40 in 10.0 mi NE 18.4 mph 26.5 mph N/A   Clear
1:53 PM 61.0 °F 51.1 °F 70% 30.38 in 10.0 mi NE 13.8 mph 21.9 mph N/A   Clear
2:53 PM 60.1 °F 50.0 °F 69% 30.38 in 10.0 mi NE 16.1 mph 24.2 mph N/A   Clear
3:53 PM 57.9 °F 48.9 °F 72% 30.38 in 10.0 mi NNE 18.4 mph 26.5 mph N/A   Overcast
4:53 PM 55.9 °F 48.9 °F 77% 30.40 in 10.0 mi NE 19.6 mph 25.3 mph N/A   Overcast
5:42 PM 55.4 °F 48.2 °F 77% 30.41 in 9.0 mi NE 18.4 mph 26.5 mph N/A   Overcast
5:53 PM 55.0 °F 48.9 °F 80% 30.41 in 9.0 mi NE 15.0 mph 25.3 mph N/A   Overcast
6:53 PM 55.0 °F 50.0 °F 83% 30.42 in 9.0 mi NE 16.1 mph 21.9 mph N/A   Overcast
7:53 PM 55.0 °F 51.1 °F 86% 30.42 in 8.0 mi NE 13.8 mph 23.0 mph N/A   Overcast
8:53 PM 55.0 °F 51.1 °F 86% 30.43 in 8.0 mi NNE 15.0 mph 24.2 mph N/A   Overcast
9:53 PM 55.0 °F 51.1 °F 86% 30.42 in 8.0 mi NNE 16.1 mph 21.9 mph N/A   Overcast
10:50 PM 55.4 °F 51.8 °F 88% 30.40 in 7.0 mi NNE 10.4 mph - N/A   Overcast
10:53 PM 55.0 °F 52.0 °F 89% 30.40 in 7.0 mi NE 10.4 mph - N/A   Overcast
11:14 PM 55.4 °F 51.8 °F 88% 30.40 in 7.0 mi NE 9.2 mph - N/A   Overcast
11:53 PM 55.9 °F 53.1 °F 90% 30.39 in 7.0 mi NNE 11.5 mph - N/A   Overcast